Location: Beutels
(47.8767°N, 9.8584°E)
Time: 21:46:48
(UTC+00:00)

Cosmos 1500 Rocket - Pass Details

Date: 19 May 2025
Orbit: 598 x 623 km, 82.5° (Epoch: 15 June)

Event Time Altitude Azimuth Distance (km) Brightness Sun altitude
Rises 22:46:29 0° 349° (N) 2,879 8.5 -21.8°
Reaches altitude 10° 22:48:43 10° 349° (N) 1,974 7.3 -21.8°
Maximum altitude 22:53:05 81° 263° (W) 626 3.4 -21.9°
Enters shadow 22:53:37 67° 193° (SSW) 667 3.4 -21.9°
